Weather History for Vacaville, CA

Change the Weather History Date:

Monday, December 2, 2013

  Actual Average Record
Temperature  
Mean Temperature 50 °F -  
Max Temperature 66 °F 58 °F 75 °F (1958)
Min Temperature 35 °F 38 °F 27 °F (1948)
Degree Days  
Heating Degree Days 14    
Moisture  
Dew Point 42 °F    
Average Humidity 80    
Maximum Humidity 100    
Minimum Humidity 48    
Precipitation  
Precipitation 0.00 in - - ()
Sea Level Pressure  
Sea Level Pressure 30.08 in    
Wind  
Wind Speed 1 mph (SW)    
Max Wind Speed 9 mph    
Max Gust Speed -    
Visibility 7 miles    
Events Fog    
Averages and records for this station are not official NWS values.
T = Trace of Precipitation, MM = Missing Value Source: NWS Daily Summary

Daily Weather History Graph

Daily Weather History Graph

Search for Another Location

Airport:

Trip Planner

Search our weather history database for the weather conditions in past years. The results will help you decide how hot, cold, wet, or windy it might be!

Date:

Astronomy

Dec. 02, 2013 Rise Set
Actual Time 7:07 AM PST 4:47 PM PST
Civil Twilight 6:38 AM PST 5:16 PM PST
Nautical Twilight 6:05 AM PST 5:49 PM PST
Astronomical Twilight 5:33 AM PST 6:21 PM PST
Moon 6:38 AM PST (12/2) 4:55 PM PST (12/2)
Length of Visible Light 10h 38m
Length of Day
9h 40m
Waning Crescent, 0% of the Moon is Illuminated
Dec 2
Waning Crescent
Dec 2
New
Dec 9
First Quarter
Dec 17
Full
Dec 25
Last Quarter

Hourly Weather History & Observations

Time (PST) Temp. Windchill Dew Point Humidity Pressure Visibility Wind Dir Wind Speed Gust Speed Precip Events Conditions
12:53 AM 42.1 °F - 39.9 °F 92% 30.22 in 10.0 mi Calm Calm - N/A   Clear
1:53 AM 39.0 °F - 37.9 °F 96% 30.22 in 10.0 mi Calm Calm - N/A   Clear
2:53 AM 37.0 °F - 36.0 °F 96% 30.20 in 9.0 mi Calm Calm - N/A   Clear
3:53 AM 37.0 °F - 36.0 °F 96% 30.18 in 9.0 mi Calm Calm - N/A   Clear
4:53 AM 35.1 °F - 34.0 °F 96% 30.16 in 7.0 mi Calm Calm - N/A   Clear
5:53 AM 36.0 °F - 36.0 °F 100% 30.15 in 6.0 mi Calm Calm - N/A   Clear
6:53 AM 35.1 °F - 35.1 °F 100% 30.17 in 5.0 mi Calm Calm - N/A   Clear
7:53 AM 37.9 °F - 37.0 °F 97% 30.16 in 5.0 mi Calm Calm - N/A   Clear
8:24 AM 41.0 °F - 39.2 °F 93% 30.15 in 1.5 mi Calm Calm - N/A   Clear
8:26 AM 41.0 °F - 39.2 °F 93% 30.15 in 1.0 mi Calm Calm - N/A   Mist
8:34 AM 41.0 °F - 41.0 °F 100% 30.15 in 0.2 mi Calm Calm - N/A Fog Fog
8:43 AM 42.8 °F - 41.0 °F 93% 30.15 in 2.0 mi Calm Calm - N/A   Scattered Clouds
8:53 AM 42.1 °F - 41.0 °F 96% 30.15 in 2.5 mi Calm Calm - N/A   Scattered Clouds
9:11 AM 42.8 °F 41.1 °F 42.8 °F 100% 30.14 in 3.0 mi ESE 3.5 mph - N/A   Clear
9:53 AM 48.0 °F - 43.0 °F 83% 30.12 in 6.0 mi SSE 3.5 mph - N/A   Haze
10:53 AM 55.9 °F - 45.0 °F 67% 30.11 in 9.0 mi NNW 5.8 mph - N/A   Clear
11:53 AM 63.0 °F - 45.0 °F 52% 30.07 in 10.0 mi SW 8.1 mph - N/A   Clear
12:53 PM 64.0 °F - 46.0 °F 52% 30.05 in 10.0 mi WSW 3.5 mph - N/A   Clear
1:53 PM 66.0 °F - 46.0 °F 48% 30.02 in 10.0 mi WSW 3.5 mph - N/A   Clear
2:53 PM 64.0 °F - 44.1 °F 48% 30.01 in 10.0 mi Variable 3.5 mph - N/A   Clear
3:53 PM 60.1 °F - 45.0 °F 57% 30.00 in 6.0 mi NNW 3.5 mph - N/A   Haze
4:53 PM 55.9 °F - 44.1 °F 64% 30.00 in 8.0 mi Calm Calm - N/A   Clear
5:53 PM 50.0 °F - 43.0 °F 77% 29.98 in 9.0 mi Calm Calm - N/A   Clear
6:53 PM 54.0 °F - 46.0 °F 75% 29.97 in 10.0 mi Calm Calm - N/A   Clear
7:53 PM 61.0 °F - 46.9 °F 60% 29.97 in 10.0 mi WNW 6.9 mph - N/A   Clear
8:53 PM 57.9 °F - 46.9 °F 67% 29.95 in 10.0 mi South 5.8 mph - N/A   Clear
9:53 PM 55.9 °F - 48.0 °F 75% 29.95 in 10.0 mi SSE 9.2 mph - N/A   Clear
10:53 PM 57.9 °F - 48.9 °F 72% 29.93 in 10.0 mi Variable 6.9 mph - N/A   Clear
11:53 PM 55.0 °F - 48.9 °F 80% 29.91 in 10.0 mi South 4.6 mph - N/A   Mostly Cloudy